| time (UTC) | temp F | wind direction | speed MPH | gust MPH | rain 1hr in | rain 24hr in | rain mn in | humidity % | barometer mb |
| 20260902104617 | 69 | 165 | 0.0 | 7.0 | 0.00 | 0.10 | 0.00 | 92 | 961.3 |
| 20260902103054 | 69 | 175 | 2.0 | 7.0 | 0.00 | 0.10 | 0.00 | 92 | 961.4 |
| 20260902101557 | 69 | 187 | 2.0 | 7.0 | 0.00 | 0.10 | 0.00 | 92 | 961.5 |
| 20260902100114 | 69 | 202 | 2.0 | 9.0 | 0.00 | 0.10 | 0.00 | 92 | 961.7 |
| 20260902094554 | 69 | 181 | 1.0 | 5.0 | 0.00 | 0.10 | 0.00 | 92 | 961.5 |
| 20260902093100 | 68 | 178 | 1.0 | 4.0 | 0.00 | 0.10 | 0.00 | 91 | 961.6 |
| 20260902091552 | 68 | 190 | 1.0 | 3.0 | 0.00 | 0.10 | 0.00 | 91 | 961.5 |
| 20260902090053 | 68 | 192 | 2.0 | 5.0 | 0.00 | 0.10 | 0.00 | 91 | 961.5 |
| 20260902084554 | 68 | 213 | 2.0 | 5.0 | 0.00 | 0.13 | 0.00 | 91 | 961.6 |
| 20260902083102 | 68 | 182 | 2.0 | 6.0 | 0.00 | 0.13 | 0.00 | 91 | 961.5 |
| 20260902081608 | 68 | 186 | 2.0 | 4.0 | 0.00 | 0.13 | 0.00 | 91 | 961.4 |
| 20260902080056 | 68 | 175 | 1.0 | 5.0 | 0.00 | 0.13 | 0.00 | 91 | 961.3 |
| 20260902074547 | 68 | 244 | 0.0 | 1.0 | 0.00 | 0.13 | 0.00 | 91 | 961.4 |
| 20260902073045 | 68 | 244 | 0.0 | 3.0 | 0.00 | 0.13 | 0.00 | 91 | 961.3 |
| 20260902071558 | 67 | 244 | 0.0 | 3.0 | 0.00 | 0.13 | 0.00 | 91 | 961.2 |
| 20260902070046 | 67 | 244 | 0.0 | 3.0 | 0.00 | 0.13 | 0.00 | 91 | 961.2 |
| 20260902064548 | 68 | 244 | 1.0 | 3.0 | 0.00 | 0.13 | 0.00 | 91 | 961.5 |
| 20260902063106 | 68 | 244 | 1.0 | 3.0 | 0.00 | 0.13 | 0.00 | 90 | 961.4 |
| 20260902061550 | 68 | 244 | 1.0 | 3.0 | 0.00 | 0.13 | 0.00 | 91 | 961.5 |
| 20260902060054 | 68 | 244 | 0.0 | 2.0 | 0.00 | 0.13 | 0.00 | 90 | 961.6 |
| 20260902054542 | 68 | 244 | 0.0 | 1.0 | 0.00 | 0.13 | 0.00 | 90 | 961.4 |
| 20260902053041 | 69 | 244 | 0.0 | 3.0 | 0.00 | 0.13 | 0.00 | 91 | 961.6 |
| 20260902051536 | 69 | 244 | 1.0 | 3.0 | 0.00 | 0.13 | 0.00 | 91 | 961.5 |
| 20260902050035 | 69 | 322 | 0.0 | 2.0 | 0.00 | 0.13 | 0.00 | 90 | 961.4 |
| 20260902044541 | 69 | 323 | 0.0 | 1.0 | 0.00 | 0.13 | 0.00 | 90 | 961.3 |
| 20260902043032 | 69 | 323 | 0.0 | 1.0 | 0.00 | 0.13 | 0.00 | 90 | 961.1 |
| 20260902041534 | 69 | 324 | 0.0 | 1.0 | 0.00 | 0.13 | 0.00 | 90 | 961.0 |
| 20260902040028 | 70 | 324 | 0.0 | 0.0 | 0.00 | 0.13 | 0.00 | 90 | 960.9 |
| 20260902034525 | 70 | 324 | 1.0 | 3.0 | 0.00 | 0.13 | 0.13 | 90 | 960.8 |
| 20260902033024 | 71 | 335 | 0.0 | 4.0 | 0.00 | 0.13 | 0.13 | 90 | 960.7 |
| 20260902031536 | 71 | 300 | 0.0 | 0.0 | 0.00 | 0.13 | 0.13 | 90 | 960.7 |
| 20260902030024 | 71 | 300 | 0.0 | 0.0 | 0.00 | 0.13 | 0.13 | 89 | 960.8 |
| 20260902024524 | 71 | 300 | 0.0 | 2.0 | 0.00 | 0.14 | 0.13 | 89 | 960.8 |
| 20260902023023 | 71 | 300 | 0.0 | 0.0 | 0.00 | 0.14 | 0.13 | 88 | 960.8 |
| 20260902021531 | 71 | 300 | 0.0 | 1.0 | 0.00 | 0.14 | 0.13 | 88 | 960.8 |
| 20260902020027 | 72 | 300 | 0.0 | 2.0 | 0.00 | 0.14 | 0.13 | 88 | 960.8 |
| 20260902014542 | 72 | 297 | 0.0 | 0.0 | 0.00 | 0.18 | 0.13 | 88 | 960.7 |
| 20260902013020 | 72 | 297 | 0.0 | 1.0 | 0.00 | 0.18 | 0.13 | 87 | 960.6 |
| 20260902011521 | 72 | 297 | 0.0 | 0.0 | 0.00 | 0.18 | 0.13 | 87 | 960.4 |
| 20260902010023 | 73 | 297 | 0.0 | 0.0 | 0.00 | 0.18 | 0.13 | 87 | 960.3 |
| 20260902004524 | 73 | 297 | 0.0 | 1.0 | 0.00 | 0.20 | 0.13 | 86 | 960.0 |
| 20260902003020 | 73 | 297 | 0.0 | 0.0 | 0.00 | 0.20 | 0.13 | 86 | 959.8 |
| 20260902001519 | 74 | 297 | 0.0 | 0.0 | 0.00 | 0.20 | 0.13 | 85 | 959.6 |
| 20260902000032 | 74 | 297 | 0.0 | 0.0 | 0.00 | 0.20 | 0.13 | 85 | 959.6 |
| 20260901234535 | 75 | 297 | 0.0 | 1.0 | 0.00 | 0.20 | 0.13 | 85 | 959.6 |
| 20260901233017 | 75 | 297 | 0.0 | 0.0 | 0.00 | 0.20 | 0.13 | 84 | 959.5 |
| 20260901231517 | 76 | 297 | 0.0 | 1.0 | 0.00 | 0.20 | 0.13 | 84 | 959.3 |
| 20260901230017 | 76 | 297 | 0.0 | 3.0 | 0.00 | 0.20 | 0.13 | 83 | 959.3 |
| 20260901224515 | 77 | 288 | 0.0 | 3.0 | 0.00 | 0.22 | 0.13 | 83 | 959.3 |
| 20260901223015 | 77 | 288 | 0.0 | 3.0 | 0.00 | 0.22 | 0.13 | 83 | 959.2 |
| 20260901221536 | 77 | 304 | 0.0 | 2.0 | 0.00 | 0.22 | 0.13 | 83 | 959.3 |
| 20260901220015 | 78 | 298 | 0.0 | 3.0 | 0.00 | 0.22 | 0.13 | 83 | 959.4 |
| 20260901214512 | 78 | 346 | 0.0 | 1.0 | 0.00 | 0.27 | 0.13 | 83 | 959.4 |
| 20260901213012 | 78 | 331 | 1.0 | 3.0 | 0.00 | 0.27 | 0.13 | 83 | 959.2 |
| 20260901211509 | 77 | 309 | 0.0 | 4.0 | 0.00 | 0.27 | 0.13 | 84 | 959.0 |
| 20260901210014 | 76 | 288 | 0.0 | 2.0 | 0.00 | 0.27 | 0.13 | 85 | 959.1 |
| 20260901204505 | 76 | 281 | 0.0 | 5.0 | 0.00 | 0.28 | 0.13 | 84 | 959.2 |
| 20260901203003 | 75 | 290 | 2.0 | 5.0 | 0.00 | 0.28 | 0.13 | 85 | 959.2 |
| 20260901201508 | 75 | 252 | 1.0 | 5.0 | 0.00 | 0.28 | 0.13 | 86 | 959.3 |
| 20260901200001 | 75 | 263 | 0.0 | 2.0 | 0.00 | 0.30 | 0.13 | 86 | 959.3 |
| 20260901194600 | 75 | 282 | 0.0 | 3.0 | 0.00 | 0.30 | 0.13 | 86 | 959.4 |
| 20260901193109 | 75 | 247 | 0.0 | 4.0 | 0.00 | 0.30 | 0.13 | 87 | 959.4 |
| 20260901191559 | 75 | 247 | 1.0 | 3.0 | 0.00 | 0.30 | 0.13 | 87 | 959.4 |
| 20260901190057 | 75 | 259 | 1.0 | 4.0 | 0.00 | 0.30 | 0.13 | 87 | 959.3 |
| 20260901184603 | 75 | 252 | 3.0 | 7.0 | 0.00 | 0.30 | 0.13 | 87 | 959.2 |
| 20260901183058 | 74 | 219 | 2.0 | 7.0 | 0.00 | 0.30 | 0.13 | 87 | 959.0 |
| 20260901181555 | 74 | 248 | 4.0 | 8.0 | 0.00 | 0.30 | 0.13 | 89 | 959.0 |
| 20260901180051 | 73 | 238 | 3.0 | 8.0 | 0.00 | 0.30 | 0.13 | 90 | 958.9 |
| 20260901174546 | 73 | 240 | 5.0 | 11.0 | 0.00 | 0.36 | 0.13 | 92 | 958.8 |
| 20260901173043 | 72 | 281 | 5.0 | 10.0 | 0.00 | 0.36 | 0.13 | 92 | 958.9 |
| 20260901171540 | 71 | 285 | 6.0 | 9.0 | 0.00 | 0.36 | 0.13 | 92 | 958.9 |
| 20260901170038 | 70 | 217 | 4.0 | 9.0 | 0.00 | 0.36 | 0.13 | 92 | 958.8 |
| 20260901164536 | 70 | 267 | 4.0 | 10.0 | 0.00 | 0.49 | 0.13 | 92 | 958.9 |
| 20260901163036 | 70 | 221 | 3.0 | 8.0 | 0.00 | 0.49 | 0.13 | 92 | 959.0 |
| 20260901161540 | 70 | 219 | 3.0 | 7.0 | 0.00 | 0.49 | 0.13 | 92 | 959.1 |
| 20260901160133 | 70 | 239 | 4.0 | 9.0 | 0.00 | 0.49 | 0.13 | 92 | 958.9 |
| 20260901154531 | 69 | 200 | 4.0 | 8.0 | 0.00 | 0.50 | 0.13 | 92 | 959.0 |
| 20260901153034 | 69 | 236 | 2.0 | 5.0 | 0.00 | 0.50 | 0.13 | 92 | 959.2 |
| 20260901151529 | 69 | 221 | 3.0 | 5.0 | 0.00 | 0.50 | 0.13 | 92 | 959.2 |
| 20260901150031 | 69 | 228 | 2.0 | 6.0 | 0.00 | 0.50 | 0.13 | 92 | 959.2 |
| 20260901144525 | 68 | 258 | 3.0 | 7.0 | 0.00 | 0.50 | 0.13 | 92 | 959.0 |
| 20260901143029 | 68 | 227 | 4.0 | 11.0 | 0.00 | 0.50 | 0.13 | 92 | 958.9 |
| 20260901141524 | 68 | 249 | 4.0 | 9.0 | 0.00 | 0.50 | 0.13 | 92 | 958.8 |
| 20260901140024 | 68 | 259 | 6.0 | 11.0 | 0.00 | 0.50 | 0.13 | 92 | 959.0 |
| 20260901134536 | 68 | 236 | 3.0 | 9.0 | 0.00 | 0.50 | 0.13 | 92 | 959.0 |
| 20260901133019 | 67 | 232 | 4.0 | 8.0 | 0.01 | 0.50 | 0.13 | 92 | 959.1 |
| 20260901131520 | 67 | 229 | 3.0 | 8.0 | 0.01 | 0.50 | 0.13 | 92 | 959.3 |
| 20260901130017 | 67 | 207 | 1.0 | 3.0 | 0.01 | 0.50 | 0.13 | 92 | 959.3 |
| 20260901124519 | 67 | 194 | 1.0 | 6.0 | 0.01 | 0.50 | 0.13 | 92 | 959.2 |
| 20260901123013 | 67 | 217 | 4.0 | 8.0 | 0.02 | 0.49 | 0.12 | 92 | 959.7 |
| 20260901121514 | 66 | 237 | 3.0 | 8.0 | 0.07 | 0.49 | 0.12 | 92 | 960.0 |
| 20260901120011 | 66 | 223 | 2.0 | 5.0 | 0.07 | 0.49 | 0.12 | 92 | 959.5 |
| 20260901114506 | 66 | 219 | 0.0 | 2.0 | 0.08 | 0.49 | 0.12 | 92 | 959.6 |
| 20260901113002 | 66 | 219 | 1.0 | 2.0 | 0.05 | 0.46 | 0.09 | 92 | 959.8 |
| 20260901111601 | 65 | 219 | 0.0 | 1.0 | 0.02 | 0.42 | 0.05 | 92 | 959.6 |